Ketchikan, AK

4:20 PM AKST on February 20, 2019 (GMT -0900)
Ketchikan International

Weather History for PAKT - January, 2019

Change the Weather History Date:

Thursday, January 24, 2019

  Actual Average Record
Temperature  
Mean Temperature 42 °F -  
Max Temperature 44 °F 39 °F 51 °F (1970)
Min Temperature 41 °F 29 °F 1 °F (1997)
Degree Days  
Heating Degree Days 22    
Moisture  
Dew Point 41 °F    
Average Humidity 94    
Maximum Humidity 100    
Minimum Humidity 87    
Precipitation  
Precipitation 0.23 in - - ()
Sea Level Pressure  
Sea Level Pressure 30.31 in    
Wind  
Wind Speed 12 mph (SE)    
Max Wind Speed 20 mph    
Max Gust Speed 31 mph    
Visibility 5 miles    
Events Rain    
Averages and records for this station are not official NWS values.
T = Trace of Precipitation, MM = Missing Value Source: NWS Daily Summary

Daily Weather History Graph

Daily Weather History Graph

Search for Another Location

Airport or City:

Astronomy

Jan. 24, 2019 Rise Set
Actual Time 7:52 AM AKST 4:05 PM AKST
Civil Twilight 7:10 AM AKST 4:47 PM AKST
Nautical Twilight 6:25 AM AKST 5:33 PM AKST
Astronomical Twilight 5:42 AM AKST 6:16 PM AKST
Moon 9:20 PM AKST (1/24) 9:53 AM AKST (1/24)
Length of Visible Light 9h 37m
Length of Day
8h 13m
Waning Gibbous, 81% of the Moon is Illuminated
Jan 24
Waning Gibbous
Jan 27
Last Quarter
Feb 4
New
Feb 12
First Quarter
Feb 19
Full

Hourly Weather History & Observations

Time (AKST) Temp. Windchill Dew Point Humidity Pressure Visibility Wind Dir Wind Speed Gust Speed Precip Events Conditions
12:30 AM 41.0 °F 35.2 °F 39.0 °F 93% 30.39 in 10.0 mi SSE 9.2 mph - N/A   Overcast
12:53 AM 41.0 °F 37.1 °F 39.9 °F 96% 30.41 in 10.0 mi South 5.8 mph - N/A   Overcast
1:10 AM 41.0 °F 37.1 °F 39.0 °F 93% 30.41 in 10.0 mi SSE 5.8 mph - N/A   Overcast
2:53 AM 41.0 °F 35.8 °F 39.9 °F 96% 30.40 in 5.0 mi SSE 8.1 mph - N/A   Overcast
3:53 AM 41.0 °F 33.5 °F 39.0 °F 93% 30.36 in 10.0 mi SE 13.8 mph 20.7 mph 0.00 in   Overcast
4:48 AM 41.0 °F 33.9 °F 39.2 °F 93% 30.35 in 2.5 mi SE 12.7 mph - 0.00 in Rain Light Rain
4:53 AM 41.0 °F 33.1 °F 39.0 °F 93% 30.35 in 3.0 mi SE 15.0 mph - 0.00 in Rain Light Rain
5:53 AM 41.0 °F 33.1 °F 39.0 °F 93% 30.34 in 3.0 mi SE 15.0 mph 21.9 mph 0.01 in Rain Light Rain
6:01 AM 41.0 °F 32.8 °F 39.0 °F 93% 30.32 in 4.0 mi SSE 16.1 mph - 0.00 in Rain Light Rain
6:07 AM 41.0 °F 32.5 °F 39.2 °F 93% 30.32 in 5.0 mi SSE 17.3 mph - N/A Rain Light Rain
6:53 AM 42.8 °F 35.1 °F 39.2 °F 87% 30.32 in 10.0 mi SE 16.1 mph 21.9 mph N/A   Overcast
7:53 AM 42.8 °F 35.8 °F 39.2 °F 87% 30.32 in 10.0 mi SSE 13.8 mph - N/A   Overcast
8:53 AM 42.8 °F 35.4 °F 39.2 °F 87% 30.31 in 9.0 mi SSE 15.0 mph 23.0 mph N/A Rain Light Rain
9:53 AM 42.8 °F 34.3 °F 39.2 °F 87% 30.27 in 10.0 mi SE 19.6 mph 31.1 mph N/A   Overcast
10:53 AM 42.8 °F 35.4 °F 39.2 °F 87% 30.30 in 4.0 mi SE 15.0 mph - N/A Rain Light Rain
11:53 AM 42.8 °F 36.2 °F 39.2 °F 87% 30.28 in 8.0 mi SSE 12.7 mph - N/A Rain Light Rain
12:53 PM 42.8 °F 37.0 °F 39.2 °F 87% 30.26 in 5.0 mi SSE 10.4 mph - N/A Rain Light Rain
1:12 PM 42.8 °F 37.0 °F 41.0 °F 93% 30.26 in 3.0 mi SSE 10.4 mph 20.7 mph N/A Rain Light Rain
1:53 PM 42.8 °F 37.0 °F 41.0 °F 93% 30.27 in 3.0 mi SSE 10.4 mph - N/A Rain Light Rain
2:53 PM 42.8 °F 36.2 °F 41.0 °F 93% 30.27 in 3.0 mi SE 12.7 mph - N/A Rain Light Rain
3:53 PM 42.8 °F 35.4 °F 42.8 °F 100% 30.27 in 3.0 mi SE 15.0 mph - N/A Rain Light Rain
4:53 PM 42.8 °F 35.8 °F 42.8 °F 100% 30.27 in 3.0 mi SE 13.8 mph - N/A Rain Light Rain
5:53 PM 42.8 °F 37.0 °F 42.8 °F 100% 30.27 in 3.0 mi SE 10.4 mph - N/A Rain Light Rain
6:53 PM 42.8 °F 36.6 °F 42.8 °F 100% 30.26 in 3.0 mi SSE 11.5 mph - N/A Rain Light Rain
7:53 PM 42.8 °F 34.5 °F 42.8 °F 100% 30.26 in 3.0 mi SE 18.4 mph 23.0 mph N/A Rain Light Rain
8:53 PM 42.8 °F 35.1 °F 42.8 °F 100% 30.29 in 3.0 mi SE 16.1 mph - N/A Rain Light Rain
9:53 PM 43.0 °F 36.8 °F 43.0 °F 100% 30.28 in 3.0 mi SE 11.5 mph - 0.06 in Rain Light Rain
10:00 PM 43.0 °F 36.4 °F 43.0 °F 100% 30.28 in 1.2 mi SE 12.7 mph - 0.01 in Rain Light Rain
10:39 PM 43.0 °F 35.4 °F 42.1 °F 97% 30.25 in 1.8 mi SE 16.1 mph - 0.06 in Rain Light Rain
10:53 PM 44.1 °F 36.8 °F 42.1 °F 93% 30.28 in 1.2 mi SSE 16.1 mph - 0.07 in Rain Light Rain
11:17 PM 43.0 °F 35.7 °F 42.1 °F 97% 30.30 in 1.5 mi SE 15.0 mph - 0.04 in Rain Light Rain
11:50 PM 42.8 °F 36.2 °F 42.8 °F 100% 30.29 in 1.8 mi SE 12.7 mph - 0.09 in Rain Light Rain
11:53 PM 43.0 °F 36.4 °F 43.0 °F 100% 30.30 in 1.8 mi SE 12.7 mph - 0.09 in Rain Light Rain